This is the latest recevied weather packets stored in our database for station/object EA7DYY-12. If no packets are shown the sender has not sent any weather packets the latest 10 day(s).
| Time | Temp. | Humidity | Pressure | Rain* | Wind** | Luminosity | Snow |
|---|---|---|---|---|---|---|---|
| 1787929910 | 20.56° C | 51% | 1160.1 hPa | - | - | - | - |
| 1787928110 | 20.56° C | 49% | 1160.2 hPa | - | - | - | - |
| 1787927210 | 20.56° C | 49% | 1160.3 hPa | - | - | - | - |
| 1787926310 | 20° C | 49% | 1160.4 hPa | - | - | - | - |
| 1787925410 | 20° C | 49% | 1160.6 hPa | - | - | - | - |
| 1787924510 | 20° C | 48% | 1160.9 hPa | - | - | - | - |
| 1787923610 | 20° C | 49% | 1161 hPa | - | - | - | - |
| 1787922710 | 20° C | 49% | 1161.1 hPa | - | - | - | - |
| 1787921810 | 20° C | 46% | 1161.1 hPa | - | - | - | - |
| 1787920910 | 20° C | 45% | 1161.4 hPa | - | - | - | - |
| 1787920009 | 20° C | 44% | 1161.4 hPa | - | - | - | - |
| 1787919109 | 20° C | 44% | 1161.5 hPa | - | - | - | - |
| 1787918209 | 20° C | 44% | 1161.5 hPa | - | - | - | - |
| 1787917309 | 20° C | 44% | 1161.6 hPa | - | - | - | - |
| 1787916409 | 20° C | 44% | 1161.9 hPa | - | - | - | - |
| 1787915509 | 20° C | 44% | 1161.9 hPa | - | - | - | - |
| 1787914609 | 20° C | 44% | 1162.3 hPa | - | - | - | - |
| 1787913709 | 20° C | 44% | 1162.4 hPa | - | - | - | - |
| 1787912809 | 20° C | 46% | 1162.5 hPa | - | - | - | - |
| 1787911909 | 20° C | 46% | 1162.2 hPa | - | - | - | - |
| 1787911009 | 20° C | 47% | 1162.3 hPa | - | - | - | - |
| 1787910109 | 20° C | 47% | 1162.4 hPa | - | - | - | - |
| 1787909209 | 20° C | 47% | 1162.4 hPa | - | - | - | - |
| 1787908305 | 20° C | 47% | 1162.4 hPa | - | - | - | - |
| 1787907405 | 19.44° C | 47% | 1162.2 hPa | - | - | - | - |
* Rain since midnight (hover to see other rain measurements)
** Current wind speed in m/s (hover to see current wind gust speed)